Temperature
13 13 13 13 14 14 14 14 15 15 16 15 15 15 15 15 14 14 14 14 14 14 14 14 14 14 14 14 14 14 14 14 14 14 14 14 14 15 15 15 15 15 15
13 13 13 14 14 14 14 15 15 15 15 15 15 15 15 15 14 14 14 14 14 14 14 14 14 14 14 14 14 14 14 14 14 14 14 14 14 14 14 14 14 15 15
13 13 14 14 14 14 14 15 15 15 15 15 15 15 15 14 14 14 14 14 14 14 14 14 13 13 13 13 13 13 14 13 14 13 13 13 14 14 14 14 14 14 15
13 13 14 14 14 14 14 15 15 15 15 15 15 15 14 14 14 14 14 14 14 14 14 14 14 13 13 13 13 13 13 13 13 13 13 13 13 14 14 14 14 14 14
14 14 14 14 14 14 14 15 15 15 14 14 14 14 14 14 14 14 14 14 14 14 14 14 14 14 14 13 13 13 13 13 13 13 13 13 13 13 13 13 13 13 14
13 13 13 13 13 14 14 14 14 14 14 14 14 14 14 14 14 15 14 14 14 14 14 14 14 14 14 14 13 13 13 13 13 13 13 13 13 13 13 13 13 13 13
12 12 12 12 13 13 13 13 13 13 13 14 14 14 13 14 14 14 14 14 14 14 14 14 14 14 14 13 13 13 13 13 13 13 13 13 13 13 13 12 12 12 12
12 12 12 12 12 12 12 12 12 12 12 13 13 13 12 13 13 14 14 14 14 14 14 14 13 13 13 13 13 13 13 13 13 13 13 13 12 12 12 12 12 12 12
12 11 11 11 11 11 11 11 12 11 11 11 12 12 12 12 12 13 13 13 13 13 13 13 13 13 13 13 13 13 13 13 13 13 13 13 13 13 12 12 12 12 12
11 11 11 11 11 11 11 11 11 11 11 11 11 11 11 11 12 12 12 12 12 12 13 13 13 13 13 13 13 13 13 13 13 13 13 13 13 13 12 12 12 12 12
11 11 11 11 11 11 11 11 10 10 10 10 10 11 11 11 11 11 11 11 11 11 11 12 12 13 13 13 13 13 13 13 12 13 13 13 13 13 13 12 12 12 12
11 11 11 11 10 10 11 11 11 11 10 10 10 10 11 11 11 11 11 11 11 11 11 11 11 12 12 12 12 12 13 13 12 12 13 13 13 13 12 12 12 12 12
12 11 11 11 10 11 11 10 10 10 10 10 10 10 10 10 10 10 10 10 10 10 10 11 11 11 11 11 12 12 12 12 12 12 12 12 12 12 12 12 11 11 11
12 12 11 11 11 11 11 10 10 10 10 10 10 10 10 10 10 10 10 10 10 10 10 10 11 11 11 11 11 12 12 12 12 12 12 12 12 11 11 11 11 11 11
12 12 11 11 11 11 10 10 10 10 10 10 10 9 10 10 10 10 9 9 9 9 10 10 10 10 10 10 11 11 11 11 11 11 11 11 11 11 11 11 11 11 10
13 12 12 11 11 11 10 10 10 10 9 9 9 9 9 9 9 9 9 9 9 9 9 9 10 10 10 10 10 10 11 11 11 11 11 11 11 10 10 10 10 10 10
13 12 11 11 11 10 10 10 9 9 9 9 9 9 9 9 9 9 9 9 9 9 9 9 9 9 10 10 10 10 10 10 10 10 10 10 10 10 10 10 10 9 9
13 12 12 11 11 10 10 10 9 9 9 9 9 9 9 9 9 9 9 9 9 9 9 9 9 9 9 9 9 10 10 10 10 10 9 9 9 9 9 9 9 9 9
13 12 12 11 11 10 10 10 9 9 9 9 9 9 9 8 8 9 9 8 8 8 8 8 8 8 9 9 9 9 9 9 9 9 9 9 9 9 9 8 8 8 8
14 13 12 11 11 10 10 10 10 9 9 9 8 8 8 8 8 8 8 8 8 8 8 8 8 8 8 8 8 8 8 8 8 8 8 8 8 8 8 8 8 8 8
13 13 12 11 11 11 10 10 10 9 9 8 8 8 8 8 7 7 7 7 7 7 7 7 8 8 8 8 7 8 7 7 7 7 7 7 7 7 7 7 7 7 7
13 12 11 11 11 10 10 10 9 9 9 8 8 8 7 7 7 7 7 7 7 7 7 8 8 8 8 8 8 8 7 7 7 7 6 6 6 7 7 7 6 6 6
13 12 11 11 11 11 10 10 9 9 9 8 8 8 7 7 7 7 7 7 8 8 8 8 8 8 8 8 8 7 7 7 6 6 6 6 6 6 6 6 6 6 5
13 12 12 11 11 11 10 10 10 9 9 8 8 8 8 7 7 7 7 7 8 8 8 8 8 8 8 8 7 7 8 7 7 6 6 5 5 6 5 5 5 5 5
13 12 12 11 11 11 11 10 10 9 9 8 8 8 8 7 7 7 7 7 8 8 8 8 8 8 7 7 8 8 8 8 7 7 6 6 6 6 5 5 5 5 4
13 13 12 12 11 11 11 10 10 10 9 9 8 8 8 7 7 7 7 8 8 8 8 8 8 8 8 8 8 8 8 8 7 7 5 6 5 5 5 5 4 4 4
Wind_Speed
8 7 6 3 1 4 7 8 7 6 6 7 7 7 8 8 8 7 6 6 6 6 6 6 8 9 8 8 8 9 8 8 8 5 4 5 5 6 4 8 10 11 13
4 3 1 3 5 7 7 5 4 3 4 5 5 6 6 6 7 7 7 6 6 5 6 6 7 7 9 9 8 10 9 9 8 8 6 6 8 7 6 7 7 9 10
2 1 2 3 3 3 2 1 1 2 2 3 4 5 5 6 7 7 7 7 7 6 6 6 7 7 8 8 9 9 8 8 8 8 7 6 6 5 5 6 8 7 9
3 2 2 1 1 1 2 1 1 1 1 1 3 5 5 6 7 7 8 8 8 7 6 5 5 6 7 7 7 8 8 8 8 8 7 6 5 4 4 5 6 6 7
4 3 3 2 2 2 3 3 2 1 1 2 3 4 4 5 5 7 8 8 9 8 6 6 4 2 4 5 5 5 5 5 5 5 6 5 5 4 4 5 6 6 6
8 7 5 5 5 4 4 4 4 3 3 2 3 3 3 3 3 4 8 8 8 8 7 6 4 5 5 5 4 5 5 4 3 3 4 4 5 5 5 4 4 4 4
11 10 9 8 8 7 7 7 6 6 6 6 5 4 3 6 7 5 7 8 8 8 7 6 4 4 4 4 5 7 6 4 4 3 3 3 3 4 5 5 4 4 4
12 12 11 10 9 9 9 9 9 8 8 7 7 7 6 10 12 9 6 7 6 7 7 7 7 7 5 3 4 4 2 3 4 5 3 2 1 1 2 2 2 3 2
12 11 10 10 9 9 9 9 8 7 7 7 8 8 8 10 15 13 10 3 3 4 5 6 7 7 5 1 6 5 4 2 4 5 5 3 0 1 2 2 3 3 3
9 9 8 9 8 8 8 8 7 6 6 6 7 7 8 9 13 14 13 4 3 1 2 3 1 3 2 3 7 7 6 3 2 3 4 6 6 7 8 6 3 3 3
6 6 7 7 7 6 6 6 7 7 6 6 7 7 8 9 10 12 12 6 5 4 2 2 1 2 3 4 8 7 4 4 3 2 1 1 2 2 3 3 3 2 2
4 5 5 6 6 6 6 7 7 7 7 7 7 7 7 7 8 9 10 9 8 6 4 3 1 2 5 6 6 4 3 4 3 2 2 2 2 2 2 2 2 2 1
3 4 4 4 5 6 6 7 6 7 6 6 6 6 5 5 6 7 7 7 7 5 4 4 5 5 6 6 6 4 5 4 3 3 3 3 3 3 3 2 1 1 1
3 4 4 5 5 5 5 5 6 6 6 6 6 6 6 6 7 8 8 7 6 5 4 3 5 5 4 2 1 4 4 3 3 4 4 4 3 3 2 1 1 1 1
3 3 3 4 5 5 5 5 5 6 6 6 5 6 6 7 9 11 8 8 8 6 4 1 1 2 3 3 2 2 3 4 4 4 4 4 3 2 2 1 1 2 2
2 2 3 3 4 5 4 5 5 4 4 6 7 7 5 7 9 9 10 12 13 10 5 4 4 3 2 2 3 3 3 3 3 3 3 3 2 1 1 1 1 2 3
2 0 1 2 4 4 5 5 4 5 4 6 9 10 10 11 11 11 11 12 15 13 10 8 7 7 6 5 5 5 5 5 4 4 4 4 3 3 3 3 3 4 4
2 2 1 1 3 4 5 5 5 4 4 4 6 8 9 10 12 13 12 10 11 11 10 9 9 8 8 7 7 6 6 5 5 5 5 4 4 4 4 4 5 5 5
3 3 2 2 2 3 4 4 5 5 5 4 4 5 5 4 7 11 11 10 10 9 9 9 8 8 8 8 7 7 6 6 6 5 5 5 5 5 4 5 5 5 5
3 3 2 2 2 2 3 3 5 5 4 4 5 6 6 6 7 8 9 8 8 8 7 7 7 8 7 7 7 6 6 6 6 6 5 5 5 5 4 5 5 5 5
4 5 5 2 1 1 2 3 4 4 4 4 5 6 8 6 6 7 7 7 7 7 7 7 7 7 7 6 6 6 6 5 4 4 4 4 4 4 4 4 5 5 5
4 4 3 2 2 1 1 2 3 4 4 4 4 4 2 4 5 5 6 6 6 6 6 6 6 5 6 6 6 5 5 5 4 4 4 4 4 4 4 4 5 5 6
3 4 4 3 3 3 2 2 2 2 3 3 3 3 3 4 4 4 5 5 6 6 6 6 5 5 6 7 7 6 6 5 4 4 4 4 4 4 4 5 6 6 6
3 4 4 4 4 4 3 2 2 3 2 1 1 1 2 2 3 4 4 4 5 5 5 6 6 7 8 7 7 8 9 8 6 4 4 4 4 4 4 5 5 6 6
4 5 5 5 5 4 4 3 3 3 3 2 1 0 0 2 3 3 3 4 4 4 5 5 5 5 7 9 9 9 10 11 10 7 4 4 5 5 5 6 5 6 7
5 5 5 5 5 5 5 4 4 4 3 3 2 1 1 1 2 3 3 3 3 3 4 4 5 5 5 7 9 9 9 9 9 9 6 6 6 6 6 6 7 7 8
Wind_Direction
76 80 85 105 187 248 252 249 241 218 204 199 200 200 191 192 195 196 213 210 228 232 229 238 245 247 247 247 246 241 235 230 234 232 229 231 235 250 219 234 233 217 212
77 96 171 226 243 244 239 235 221 208 211 208 197 206 202 203 206 206 214 218 229 240 244 246 250 248 248 246 242 239 234 229 231 234 226 228 243 256 262 255 241 234 236
8 328 263 248 245 239 199 175 166 159 191 212 211 223 222 224 223 224 226 228 231 236 244 253 263 263 261 252 243 240 235 232 227 234 236 220 229 234 244 252 248 246 244
3 17 5 24 52 56 63 67 74 104 175 229 239 241 242 242 242 242 241 235 234 234 236 245 261 266 265 267 257 249 240 233 225 229 234 226 216 206 226 239 244 238 243
44 44 37 44 63 75 77 67 60 48 294 280 270 260 252 251 251 251 244 238 234 229 231 236 245 294 325 302 296 288 268 247 232 229 229 224 209 183 209 223 243 252 252
52 49 52 65 76 75 67 62 53 38 16 346 308 291 277 279 353 289 263 244 240 232 229 233 218 219 211 225 271 304 313 288 253 226 218 217 210 203 205 208 230 245 258
58 57 59 64 64 62 62 59 50 41 36 32 21 14 20 29 3 317 261 257 240 232 231 229 226 234 241 236 204 222 238 236 258 271 236 218 206 197 198 204 216 235 253
57 55 54 58 60 60 56 52 47 45 46 45 40 38 44 34 16 360 315 252 242 233 229 232 228 229 224 259 250 249 248 217 215 241 261 257 239 182 192 199 198 229 252
51 50 50 54 56 54 50 45 39 38 42 46 47 42 41 35 23 12 343 292 261 244 237 239 243 240 123 261 266 264 260 236 194 246 298 304 334 185 206 195 189 213 235
50 50 50 51 54 52 48 42 40 39 39 46 51 44 39 33 25 15 356 348 335 304 250 235 222 294 71 251 257 262 268 277 261 209 220 221 228 212 207 233 235 235 246
50 51 51 50 49 41 35 33 30 34 36 40 50 48 42 32 31 25 12 3 349 320 286 252 180 84 314 280 276 277 304 316 290 274 196 133 138 159 181 203 211 229 246
45 44 43 38 29 23 23 27 32 32 41 44 46 45 39 36 28 21 13 7 343 326 312 307 332 358 309 291 274 301 325 274 257 216 153 135 129 126 129 149 162 170 182
21 32 24 21 21 15 16 25 37 44 46 46 45 38 29 22 15 357 341 333 323 313 306 311 304 294 283 257 231 248 238 224 201 182 152 136 127 128 129 126 119 122 134
357 6 10 9 18 32 35 34 43 46 46 42 33 20 4 5 9 355 344 340 324 305 295 262 242 245 250 288 200 199 203 185 180 163 141 135 138 142 134 100 48 10 6
332 347 2 15 16 30 55 51 55 62 40 21 12 1 360 360 358 345 349 360 354 350 332 314 243 184 166 151 150 151 158 161 157 142 139 140 148 151 134 104 10 342 341
310 347 3 16 25 29 49 98 94 73 49 27 18 3 25 16 358 11 18 17 13 7 20 43 41 46 69 98 117 119 117 117 120 120 115 114 108 97 86 76 6 339 339
275 347 26 21 32 35 37 45 83 121 124 72 46 34 30 24 26 25 22 30 29 32 47 43 40 40 43 51 62 74 70 64 65 70 70 65 56 44 30 21 11 359 352
194 136 127 75 46 43 45 49 54 67 83 75 69 47 28 30 33 27 21 41 44 42 43 41 40 39 41 45 49 58 63 62 64 67 66 58 43 33 27 17 14 4 349
170 154 143 100 82 65 61 62 68 74 72 55 47 61 40 45 60 41 35 50 50 45 42 40 38 38 40 43 45 49 53 54 52 51 46 37 30 28 28 18 8 7 344
145 102 128 142 137 101 83 75 77 83 82 70 50 30 32 43 50 47 46 48 50 48 43 39 36 37 37 38 38 40 46 45 41 39 33 25 16 13 17 11 2 357 356
150 147 170 185 147 100 82 78 89 101 99 83 66 40 2 43 55 55 51 46 42 38 37 38 36 31 31 30 30 30 33 33 29 25 22 13 7 8 4 3 4 5 2
158 155 167 152 145 155 112 103 102 111 114 101 94 89 26 46 59 59 51 41 37 35 33 44 49 38 34 33 29 28 24 19 14 8 8 5 4 4 2 10 11 7 3
182 170 171 165 163 157 188 148 138 134 129 113 99 89 79 62 58 56 47 39 33 32 36 45 51 47 44 42 37 28 21 14 4 357 355 358 7 16 20 18 11 4 6
203 194 189 184 186 193 193 179 174 163 158 154 130 76 75 77 60 57 54 44 39 44 48 52 52 50 48 43 40 39 30 16 9 17 19 30 35 33 31 26 24 20 14
223 206 202 200 199 204 205 199 198 188 188 197 202 221 52 70 62 61 57 54 52 59 61 61 60 55 51 53 51 46 34 28 24 10 40 51 52 49 50 49 48 43 36
228 214 210 207 207 212 215 213 209 201 205 204 201 207 216 76 68 68 64 63 70 73 69 66 61 61 60 61 55 46 40 38 30 10 34 65 63 58 63 68 66 57 57
Height
1497 1499 1501 1503 1507 1510 1513 1515 1517 1518 1518 1519 1520 1521 1522 1522 1522 1522 1523 1522 1521 1521 1521 1521 1521 1520 1519 1520 1520 1521 1522 1524 1525 1527 1529 1531 1533 1535 1536 1536 1537 1536 1537
1502 1504 1505 1508 1510 1512 1514 1515 1516 1516 1517 1517 1518 1519 1520 1520 1521 1521 1520 1520 1520 1520 1520 1520 1519 1518 1516 1516 1516 1517 1518 1519 1521 1522 1523 1525 1528 1530 1532 1533 1533 1534 1535
1507 1508 1509 1511 1512 1513 1514 1514 1515 1515 1515 1515 1516 1516 1517 1518 1518 1518 1519 1519 1519 1519 1519 1518 1518 1516 1514 1513 1513 1513 1513 1514 1515 1517 1518 1520 1522 1524 1526 1528 1529 1530 1530
1509 1510 1511 1512 1513 1513 1514 1514 1514 1514 1513 1513 1514 1514 1514 1514 1515 1516 1516 1517 1517 1517 1517 1516 1516 1514 1512 1512 1510 1510 1510 1510 1511 1512 1514 1516 1517 1519 1521 1523 1524 1525 1525
1510 1511 1512 1512 1513 1513 1513 1513 1513 1512 1512 1511 1511 1511 1511 1511 1512 1513 1514 1514 1515 1515 1515 1515 1514 1513 1511 1510 1509 1508 1508 1508 1508 1508 1509 1511 1512 1514 1515 1517 1519 1520 1520
1512 1512 1512 1512 1512 1512 1512 1512 1512 1511 1511 1510 1509 1509 1508 1509 1509 1509 1510 1511 1512 1513 1513 1513 1513 1511 1510 1509 1508 1507 1506 1506 1506 1506 1506 1507 1508 1509 1511 1513 1514 1515 1515
1515 1514 1513 1513 1512 1512 1512 1511 1511 1510 1509 1507 1507 1506 1506 1505 1505 1506 1507 1508 1509 1509 1510 1511 1511 1510 1509 1509 1508 1507 1506 1505 1505 1505 1505 1505 1506 1506 1507 1509 1510 1510 1511
1518 1516 1515 1515 1514 1513 1512 1511 1511 1510 1508 1507 1505 1504 1504 1503 1503 1503 1504 1504 1505 1506 1506 1507 1508 1508 1508 1508 1508 1508 1507 1506 1505 1504 1505 1504 1504 1505 1506 1507 1507 1507 1508
1522 1520 1519 1518 1517 1515 1514 1513 1512 1511 1509 1508 1506 1505 1503 1502 1501 1501 1501 1501 1501 1502 1502 1503 1504 1505 1505 1505 1506 1506 1506 1506 1504 1504 1503 1503 1503 1503 1504 1504 1505 1505 1505
1526 1524 1522 1521 1520 1519 1517 1516 1514 1512 1510 1508 1506 1505 1503 1502 1501 1500 1499 1499 1499 1499 1499 1499 1499 1501 1501 1502 1503 1504 1505 1505 1504 1503 1502 1502 1501 1501 1501 1502 1502 1503 1502
1528 1527 1525 1524 1522 1521 1519 1517 1515 1512 1510 1509 1507 1506 1504 1502 1501 1499 1498 1497 1497 1496 1496 1496 1496 1496 1498 1499 1500 1501 1502 1502 1502 1502 1502 1501 1500 1500 1500 1499 1500 1500 1500
1530 1528 1527 1525 1524 1522 1520 1518 1515 1513 1511 1509 1509 1507 1506 1504 1502 1500 1498 1496 1494 1494 1493 1493 1493 1493 1494 1495 1496 1497 1498 1499 1500 1500 1500 1500 1499 1499 1499 1499 1499 1499 1499
1532 1530 1528 1527 1525 1523 1521 1519 1517 1514 1513 1512 1511 1510 1508 1506 1504 1501 1498 1495 1493 1491 1490 1489 1489 1490 1491 1492 1493 1494 1495 1496 1497 1498 1499 1498 1498 1498 1498 1498 1498 1498 1498
1534 1532 1530 1529 1527 1525 1522 1520 1518 1517 1515 1514 1513 1511 1510 1508 1505 1502 1498 1495 1491 1489 1487 1486 1486 1487 1488 1489 1490 1491 1493 1494 1495 1496 1497 1497 1498 1498 1498 1498 1498 1498 1498
1534 1533 1531 1529 1528 1526 1524 1521 1519 1518 1517 1516 1515 1513 1511 1509 1506 1503 1499 1495 1491 1488 1486 1486 1486 1486 1487 1487 1488 1489 1491 1493 1494 1496 1496 1497 1497 1498 1498 1498 1498 1497 1497
1535 1533 1532 1531 1529 1527 1525 1523 1521 1520 1519 1518 1517 1515 1513 1511 1507 1504 1501 1497 1493 1490 1488 1487 1487 1487 1487 1488 1489 1490 1491 1493 1494 1496 1497 1497 1498 1498 1498 1498 1497 1497 1496
1534 1533 1532 1531 1530 1528 1527 1525 1523 1522 1521 1520 1518 1517 1514 1512 1509 1507 1503 1499 1496 1493 1491 1490 1490 1489 1489 1490 1491 1492 1493 1494 1496 1497 1498 1498 1498 1498 1498 1498 1497 1496 1496
1533 1532 1532 1531 1530 1529 1528 1526 1524 1523 1523 1522 1520 1518 1516 1514 1511 1509 1506 1503 1500 1498 1496 1495 1494 1494 1493 1494 1494 1495 1496 1497 1498 1498 1499 1499 1499 1498 1498 1497 1496 1495 1495
1533 1532 1532 1532 1531 1530 1529 1527 1526 1525 1524 1523 1522 1520 1518 1516 1514 1511 1509 1507 1504 1503 1501 1500 1499 1498 1498 1498 1498 1498 1499 1499 1499 1500 1499 1499 1499 1498 1497 1497 1496 1495 1494
1532 1532 1531 1531 1531 1531 1531 1530 1529 1527 1526 1525 1523 1521 1520 1518 1516 1514 1512 1510 1508 1507 1506 1504 1503 1502 1502 1501 1501 1501 1501 1500 1500 1499 1499 1499 1498 1498 1497 1496 1495 1494 1493
1532 1531 1531 1532 1532 1532 1532 1531 1530 1529 1528 1527 1525 1523 1521 1520 1518 1516 1514 1513 1511 1510 1508 1507 1505 1504 1503 1502 1501 1501 1500 1500 1499 1499 1498 1498 1497 1497 1496 1496 1495 1493 1492
1533 1532 1532 1532 1532 1532 1532 1531 1531 1530 1529 1528 1527 1525 1523 1522 1520 1518 1517 1515 1513 1511 1509 1508 1506 1504 1503 1502 1501 1500 1499 1498 1498 1497 1497 1497 1497 1496 1496 1495 1494 1493 1491
1533 1532 1532 1532 1532 1532 1532 1532 1531 1530 1530 1529 1528 1527 1525 1524 1522 1521 1519 1517 1514 1512 1511 1509 1507 1506 1504 1503 1501 1500 1499 1497 1497 1496 1496 1496 1496 1496 1495 1494 1493 1492 1490
1533 1532 1532 1532 1532 1532 1532 1532 1531 1530 1530 1529 1528 1527 1526 1525 1524 1522 1520 1518 1516 1514 1513 1511 1509 1508 1506 1504 1503 1501 1499 1498 1497 1496 1496 1496 1495 1495 1494 1493 1492 1491 1489
1532 1531 1531 1531 1531 1531 1531 1531 1531 1530 1529 1529 1528 1527 1527 1526 1525 1523 1521 1519 1518 1516 1514 1513 1511 1509 1508 1506 1504 1502 1500 1498 1497 1496 1496 1496 1495 1494 1494 1493 1492 1491 1490
1529 1530 1530 1530 1529 1530 1530 1530 1530 1529 1528 1528 1527 1527 1527 1526 1525 1523 1522 1520 1519 1518 1516 1515 1513 1512 1510 1508 1506 1504 1502 1500 1499 1498 1498 1497 1496 1495 1495 1494 1493 1492 1491